This demonstration page uses our WeatherBlox Daily Observations layout. Learn more.

Left ArrowRight Arrow

53.62937, 11.41316

Hourly Observations for December 25, 2018

Temp ( °F °C ) Dew Point ( °F °C ) Humidity (%) Winds ( mph kmh ) Pressure ( in mb ) Visibility ( mi km ) Precip ( " mm )
12:20 am 00:20 Mostly Cloudy 39 4 36 2 87 87 W 12 19 30.33 1027 30 48 N/A
1:20 am 01:20 Mostly Cloudy 41 5 37 3 87 87 WNW 17 28 30.33 1027 30 48 N/A
2:20 am 02:20 Mostly Cloudy 41 5 37 3 87 87 W 15 24 30.30 1026 30 48 N/A
2:46 am 02:46 Mostly Cloudy 39 4 37 3 93 93 W 15 24 30.30 1026 30 48 N/A
3:20 am 03:20 Mostly Cloudy with Light Rain 41 5 37 3 87 87 W 16 26 30.30 1026 30 48 N/A
4:20 am 04:20 Mostly Cloudy 39 4 37 3 93 93 W 15 24 30.30 1026 30 48 N/A
5:20 am 05:20 Mostly Cloudy 41 5 37 3 87 87 W 16 26 30.30 1026 30 48 N/A
6:20 am 06:20 Mostly Cloudy with Drizzle 39 4 37 3 93 93 W 15 24 30.30 1026 30 48 N/A
7:20 am 07:20 Mostly Cloudy 41 5 39 4 93 93 W 14 22 30.27 1025 30 48 N/A
8:20 am 08:20 Mostly Cloudy 41 5 37 3 87 87 W 15 24 30.27 1025 30 48 N/A
9:20 am 09:20 Mostly Cloudy 43 6 37 3 81 81 W 16 26 30.27 1025 30 48 N/A
10:20 am 10:20 Mostly Cloudy 43 6 37 3 81 81 W 17 28 30.27 1025 30 48 N/A
11:20 am 11:20 Mostly Cloudy 43 6 37 3 81 81 W 20 31 30.27 1025 30 48 N/A
12:20 pm 12:20 Mostly Cloudy 43 6 37 3 81 81 WNW 18 30 30.27 1025 30 48 N/A
1:20 pm 13:20 Mostly Cloudy 43 6 37 3 81 81 WNW 20 31 30.27 1025 30 48 N/A
2:20 pm 14:20 Mostly Cloudy 45 7 36 2 71 71 WNW 18 30 30.27 1025 30 48 N/A
3:20 pm 15:20 Mostly Cloudy 43 6 36 2 76 76 WNW 20 31 30.27 1025 30 48 N/A
4:20 pm 16:20 Mostly Cloudy 43 6 36 2 76 76 W 20 31 30.27 1025 30 48 N/A
5:20 pm 17:20 Mostly Cloudy 43 6 36 2 76 76 W 15 24 30.27 1025 30 48 N/A
6:20 pm 18:20 Mostly Cloudy 43 6 36 2 76 76 W 15 24 30.27 1025 30 48 N/A
7:20 pm 19:20 Mostly Cloudy 43 6 36 2 76 76 W 15 24 30.27 1025 30 48 N/A
8:20 pm 20:20 Mostly Cloudy 43 6 36 2 76 76 W 16 26 30.27 1025 30 48 N/A
9:20 pm 21:20 Mostly Cloudy 43 6 36 2 76 76 W 17 28 30.27 1025 30 48 N/A
10:20 pm 22:20 Mostly Cloudy 43 6 37 3 81 81 W 21 33 30.27 1025 30 48 N/A
11:20 pm 23:20 Mostly Cloudy 43 6 37 3 81 81 W 22 35 30.24 1024 30 48 N/A

Powered by AerisWeather